[[{"header":{"parameterUnit":"m.s-1","parameterCategory":1,"la1":30.2991,"la2":30.254,"lo1":-89.0895,"lo2":-89.0444,"dy":0.0017,"dx":0.0017,"nx":28,"ny":28,"refTime":"2024-03-30T21:00:00:Z","depth":0,"parameterNumber":2,"parameterNumberName":"U-component_of_WINDS"},"data":[0,0,0,0,0,0,0,0,0,0,0,0,0,0,0,0,0,0,0,0,0,0,0,0,0,0,0,0,0,0,0,0,0,0,0,0,0,0,0,0,0,0,0,0,0,0,0,0,0,0,0,0,0,0,0,0,0,0,-1.39,-1.3899,0,-1.3885,-1.3885,-1.3885,-1.3853,-1.3853,-1.3852,-1.3851,-1.3838,-1.3838,-1.3838,0,0,0,0,0,0,0,0,0,0,0,0,0,-1.39,-1.39,-1.39,-1.3899,-1.3899,-1.3885,-1.3885,-1.3885,-1.3853,-1.3853,-1.3852,-1.3851,-1.3838,-1.3838,-1.3838,0,0,0,0,0,0,0,0,0,0,0,0,0,-1.3894,-1.39,-1.39,-1.3882,-1.388,-1.3886,-1.3885,-1.3885,-1.3854,-1.3853,-1.3852,-1.3851,-1.3838,-1.3838,-1.3838,-1.3861,0,0,-1.384,-1.384,0,0,0,0,0,0,0,0,-1.3894,-1.3894,-1.3884,-1.3883,-1.3881,-1.387,-1.388,-1.3877,-1.3854,-1.3864,-1.3851,-1.385,-1.3849,-1.3849,-1.3848,-1.386,-1.3859,-1.384,-1.384,-1.384,-1.384,0,0,0,0,0,0,0,-1.3895,-1.3895,-1.3894,-1.3884,-1.3882,-1.3875,-1.3873,-1.388,-1.3862,-1.3863,-1.386,-1.3859,-1.3848,-1.3848,-1.3848,-1.3859,-1.384,-1.384,-1.384,-1.384,-1.3888,-1.3889,0,0,0,0,0,0,-1.3898,-1.3895,-1.3894,-1.3894,-1.3885,-1.3875,-1.3873,-1.3875,-1.3862,-1.3859,-1.386,-1.3858,-1.3848,-1.3847,-1.3847,-1.3872,-1.384,-1.384,-1.3841,-1.3887,-1.3888,-1.3889,0,0,0,0,0,0,-1.3898,-1.3898,-1.3895,-1.3894,-1.3893,-1.3876,-1.3878,-1.3875,-1.3875,-1.386,-1.3857,-1.3863,-1.3847,-1.3847,-1.3857,-1.3871,-1.3841,-1.3841,-1.3885,-1.3887,-1.3888,-1.3921,0,0,0,0,0,0,-1.3898,-1.3898,-1.3906,-1.3894,-1.3893,-1.3905,-1.3879,-1.3875,-1.3875,-1.3872,-1.3862,-1.3859,-1.3846,-1.3857,-1.3858,-1.3871,-1.3841,-1.3884,-1.3886,-1.3888,-1.3919,-1.3924,-1.3928,0,0,0,0,0,-1.3898,-1.3916,-1.3907,-1.3907,-1.3903,-1.3906,-1.3905,-1.389,-1.3876,-1.3884,-1.3875,-1.386,-1.3869,-1.3858,-1.3859,-1.3872,-1.3883,-1.3886,-1.3888,-1.3917,-1.3923,-1.3928,0,0,0,0,0,0,-1.3931,-1.3914,-1.3904,-1.3918,-1.3914,-1.3901,-1.391,-1.3897,-1.3896,-1.3893,-1.3874,-1.3872,-1.3885,-1.388,-1.3868,-1.3893,-1.3874,-1.3876,-1.3896,-1.3901,-1.3906,-1.3906,-1.3842,0,0,0,0,0,-1.394,-1.3944,-1.3929,-1.3944,-1.3942,-1.3927,-1.3928,-1.3916,-1.3911,-1.3908,-1.39,-1.3895,-1.3897,-1.3899,-1.39,-1.3918,-1.3915,-1.3928,-1.3932,-1.3936,-1.3938,-1.3947,-1.3952,-1.3897,-1.3897,-1.3897,0,0,-1.3958,-1.395,-1.3953,-1.395,-1.3945,-1.395,-1.3925,-1.3931,-1.3934,-1.3909,-1.3919,-1.3912,-1.3906,-1.392,-1.3926,-1.3916,-1.3953,-1.3939,-1.3942,-1.3942,-1.395,-1.3955,-1.396,-1.3898,-1.3898,-1.3898,0,0,-1.3994,-1.3988,-1.3999,-1.3995,-1.3988,-1.3977,-1.398,-1.3969,-1.3964,-1.3972,-1.3954,-1.3958,-1.3962,-1.3958,-1.3956,-1.3991,-1.3976,-1.3992,-1.4015,-1.4024,-1.4028,-1.4032,-1.4044,-1.4049,-1.3994,-1.3994,-1.3994,0,-1.4018,-1.4024,-1.4007,-1.4014,-1.4013,-1.3991,-1.4002,-1.3998,-1.3992,-1.3992,-1.3981,-1.3985,-1.3979,-1.3992,-1.4001,-1.4,-1.4003,-1.3993,-1.4029,-1.4033,-1.4036,-1.4047,-1.4052,-1.3996,-1.3996,-1.3996,-1.3996,0,-1.4054,-1.4058,-1.4068,-1.4062,-1.4062,-1.4071,-1.4056,-1.4058,-1.4047,-1.4038,-1.4047,-1.4039,-1.4038,-1.4041,-1.403,-1.4052,-1.4046,-1.4032,-1.4013,-1.4043,-1.4053,-1.4058,-1.3999,-1.3998,-1.3998,-1.3997,0,0,-1.4109,-1.4094,-1.4098,-1.4094,-1.4085,-1.4088,-1.4096,-1.4095,-1.4097,-1.4093,-1.41,-1.4104,-1.4091,-1.4089,-1.4078,-1.4086,-1.4113,-1.4071,-1.407,-1.4078,-1.4136,-1.4146,-1.4151,-1.4103,-1.4104,-1.4105,-1.4137,0,-1.4143,-1.4155,-1.414,-1.4156,-1.416,-1.4138,-1.4146,-1.4141,-1.4132,-1.4135,-1.4126,-1.4128,-1.4112,-1.411,-1.4117,-1.4108,-1.4124,-1.4106,-1.4109,-1.4109,-1.411,-1.4157,-1.4167,-1.4198,-1.4141,-1.4141,-1.4142,0,-1.4183,-1.4181,-1.4197,-1.4186,-1.4187,-1.4193,-1.4191,-1.4193,-1.4187,-1.4181,-1.4179,-1.4165,-1.4172,-1.4154,-1.4163,-1.4151,-1.4152,-1.4148,-1.4148,-1.4148,-1.4127,-1.4157,-1.4207,-1.4212,-1.4148,-1.4147,-1.4147,0,-1.4221,-1.4223,-1.4232,-1.423,-1.4218,-1.4223,-1.4218,-1.4211,-1.4211,-1.4209,-1.4209,-1.4208,-1.4207,-1.4207,-1.4193,-1.4181,-1.4205,-1.4185,-1.4199,-1.42,-1.4205,-1.4204,-1.4255,-1.4206,-1.4206,-1.4206,-1.4206,0,-1.426,-1.427,-1.4249,-1.4255,-1.4266,-1.4249,-1.4261,-1.4254,-1.4248,-1.4252,-1.4234,-1.4238,-1.422,-1.4223,-1.4212,-1.4222,-1.4222,-1.4217,-1.4214,-1.4218,-1.4219,-1.4218,-1.4215,-1.4207,-1.4207,-1.4207,-1.4206,0,-1.4304,-1.4291,-1.43,-1.4287,-1.4284,-1.4293,-1.4282,-1.4287,-1.4278,-1.4284,-1.4284,-1.4269,-1.4271,-1.4258,-1.4258,-1.425,-1.4265,-1.4259,-1.4267,-1.4265,-1.428,-1.4278,-1.4331,-1.4337,-1.4285,-1.4285,-1.4286,0,-1.4329,-1.4337,-1.4325,-1.4326,-1.4322,-1.4325,-1.4324,-1.4308,-1.4309,-1.4302,-1.4308,-1.4309,-1.4308,-1.4312,-1.4302,-1.4302,-1.4295,-1.4313,-1.4295,-1.4299,-1.4294,-1.4294,-1.4294,-1.4317,-1.4318,-1.4318,-1.4319,0,-1.4375,-1.4368,-1.4368,-1.4366,-1.4366,-1.4364,-1.436,-1.4363,-1.4345,-1.4347,-1.4348,-1.4348,-1.4347,-1.4348,-1.4346,-1.4341,-1.4327,-1.4325,-1.4328,-1.4332,-1.4336,-1.4334,-1.4277,-1.4324,-1.4323,-1.4323,-1.4322,-1.4322,-1.441,-1.4416,-1.4408,-1.4409,-1.4404,-1.4402,-1.4405,-1.4397,-1.4398,-1.4395,-1.4386,-1.4389,-1.4383,-1.4378,-1.4375,-1.4377,-1.4368,-1.4373,-1.4374,-1.4375,-1.4378,-1.4337,-1.4377,-1.4377,-1.4376,-1.4376,-1.4376,0,-1.4454,-1.4448,-1.4449,-1.4445,-1.4446,-1.4432,-1.4428,-1.4429,-1.4432,-1.4427,-1.4427,-1.4429,-1.4429,-1.4419,-1.4418,-1.4422,-1.4416,-1.4423,-1.4422,-1.4421,-1.4386,-1.4383,-1.4428,-1.4428,-1.4428,-1.4428,-1.4428,-1.4428,-1.4477,-1.4486,-1.4478,-1.4484,-1.4478,-1.4481,-1.4479,-1.4477,-1.4473,-1.4475,-1.4476,-1.4469,-1.4462,-1.446,-1.446,-1.4457,-1.4457,-1.4466,-1.4461,-1.4429,-1.4424,-1.4419,-1.4416,-1.4467,-1.4467,-1.4496,-1.4496,-1.4496]},{"header":{"parameterUnit":"m.s-1","parameterCategory":1,"la1":30.2991,"la2":30.254,"lo1":-89.0895,"lo2":-89.0444,"dy":0.0017,"dx":0.0017,"nx":28,"ny":28,"refTime":"2024-03-30T21:00:00:Z","depth":0,"parameterNumber":3,"parameterNumberName":"V-component_of_WINDS"},"data":[0,0,0,0,0,0,0,0,0,0,0,0,0,0,0,0,0,0,0,0,0,0,0,0,0,0,0,0,0,0,0,0,0,0,0,0,0,0,0,0,0,0,0,0,0,0,0,0,0,0,0,0,0,0,0,0,0,0,2.3489,2.349,0,2.3516,2.3516,2.3516,2.348,2.3479,2.3478,2.3476,2.3508,2.351,2.3512,0,0,0,0,0,0,0,0,0,0,0,0,0,2.3413,2.3415,2.3489,2.349,2.349,2.3516,2.3516,2.3516,2.3481,2.3479,2.3477,2.3476,2.3507,2.3509,2.3512,0,0,0,0,0,0,0,0,0,0,0,0,0,2.3444,2.3416,2.3489,2.3475,2.3474,2.3515,2.3516,2.3516,2.3481,2.3479,2.3477,2.3475,2.3506,2.3509,2.3512,2.357,0,0,2.3521,2.3523,0,0,0,0,0,0,0,0,2.3442,2.3447,2.3477,2.3476,2.3475,2.3493,2.3501,2.3534,2.3481,2.3478,2.3476,2.3474,2.3504,2.3508,2.3517,2.3571,2.3573,2.3522,2.3524,2.3525,2.3526,0,0,0,0,0,0,0,2.344,2.3445,2.35,2.3477,2.3476,2.3469,2.3471,2.3507,2.3502,2.3479,2.3476,2.3479,2.3504,2.3514,2.3517,2.3573,2.3522,2.3524,2.3526,2.3527,2.3678,2.3681,0,0,0,0,0,0,2.3439,2.3444,2.3499,2.3501,2.3453,2.3472,2.3475,2.3489,2.3502,2.3502,2.3481,2.3478,2.351,2.3514,2.3518,2.3588,2.3525,2.3528,2.3529,2.3676,2.3679,2.3681,0,0,0,0,0,0,2.3438,2.3444,2.3498,2.3472,2.3478,2.3475,2.3492,2.3491,2.3501,2.3503,2.3503,2.3492,2.3508,2.3514,2.3557,2.3588,2.3529,2.3532,2.3674,2.3677,2.368,2.3727,0,0,0,0,0,0,2.3436,2.3444,2.3465,2.3472,2.3479,2.3535,2.3494,2.3493,2.3506,2.3501,2.3514,2.3514,2.3507,2.3553,2.3561,2.3592,2.3534,2.3671,2.3675,2.3679,2.3723,2.3731,2.3739,0,0,0,0,0,2.3433,2.3477,2.3466,2.3473,2.3505,2.3537,2.3541,2.3531,2.3508,2.353,2.3532,2.3514,2.3584,2.3558,2.3566,2.3598,2.3669,2.3674,2.3679,2.3719,2.373,2.3739,0,0,0,0,0,0,2.3474,2.3478,2.3465,2.3513,2.3525,2.3531,2.3558,2.3543,2.3563,2.3558,2.3546,2.355,2.3596,2.3602,2.3573,2.3656,2.3623,2.363,2.3651,2.3661,2.3669,2.3667,2.3537,0,0,0,0,0,2.3489,2.3513,2.3516,2.3558,2.3564,2.356,2.3574,2.3565,2.3578,2.3583,2.3588,2.3602,2.3627,2.3644,2.3668,2.3723,2.3727,2.375,2.3758,2.3765,2.3771,2.3803,2.3813,2.3697,2.3697,2.3697,0,0,2.3519,2.3524,2.3541,2.3566,2.3574,2.3602,2.3565,2.3595,2.3615,2.3588,2.3629,2.3634,2.3649,2.3699,2.3721,2.3705,2.3804,2.3771,2.3776,2.3779,2.3809,2.382,2.383,2.3701,2.37,2.37,0,0,2.3589,2.3595,2.3631,2.364,2.3652,2.365,2.3659,2.3667,2.3669,2.371,2.369,2.3716,2.3759,2.3771,2.3783,2.3859,2.3843,2.3867,2.391,2.3941,2.395,2.3958,2.3986,2.3997,2.3873,2.3873,2.3873,0,2.3626,2.3664,2.3652,2.3683,2.3696,2.3672,2.3709,2.3719,2.374,2.375,2.3731,2.3786,2.3794,2.3848,2.3866,2.3876,2.3887,2.3865,2.3949,2.3957,2.3965,2.3992,2.4002,2.3876,2.3876,2.3875,2.3875,0,2.371,2.3737,2.3765,2.3784,2.38,2.3835,2.3829,2.3847,2.3838,2.3838,2.3881,2.389,2.3916,2.3928,2.3919,2.3981,2.3971,2.3951,2.3917,2.3979,2.4004,2.4014,2.388,2.3879,2.3878,2.3877,0,0,2.3806,2.3818,2.3829,2.3838,2.385,2.3872,2.3907,2.3931,2.3947,2.3963,2.3993,2.403,2.4012,2.4026,2.4019,2.4046,2.4107,2.4023,2.4023,2.4039,2.4178,2.4194,2.4206,2.4097,2.4099,2.41,2.4177,0,2.3876,2.3934,2.3924,2.3982,2.4008,2.3986,2.4016,2.4029,2.403,2.4054,2.4056,2.4083,2.4057,2.4065,2.4091,2.4094,2.4135,2.4089,2.4127,2.4128,2.4124,2.4219,2.4235,2.4307,2.4187,2.4189,2.419,0,2.3966,2.3983,2.4043,2.4053,2.4064,2.4091,2.4113,2.4136,2.415,2.4149,2.4165,2.4153,2.419,2.4156,2.4207,2.4176,2.4191,2.4195,2.4198,2.4202,2.4163,2.4226,2.4329,2.4341,2.4205,2.4204,2.4203,0,2.4031,2.407,2.4111,2.412,2.4132,2.4152,2.4159,2.4171,2.4186,2.4206,2.4217,2.4241,2.4255,2.4275,2.4271,2.4246,2.4324,2.4289,2.4326,2.4326,2.4344,2.4343,2.4452,2.4352,2.4352,2.4352,2.4352,0,2.4111,2.4149,2.4141,2.4166,2.4209,2.4198,2.4241,2.4245,2.4256,2.4284,2.4266,2.4293,2.4285,2.4312,2.4309,2.4353,2.4359,2.4361,2.436,2.4363,2.4363,2.4373,2.4369,2.4355,2.4354,2.4354,2.4353,0,2.4192,2.4187,2.4231,2.4239,2.4242,2.4273,2.4281,2.4306,2.4306,2.4341,2.4349,2.435,2.4381,2.4378,2.4413,2.4411,2.4466,2.4459,2.4461,2.446,2.4498,2.4495,2.4618,2.4634,2.4523,2.4524,2.4525,0,2.4243,2.4272,2.4283,2.4299,2.4307,2.4334,2.435,2.4341,2.4359,2.4378,2.4401,2.443,2.4452,2.4503,2.4508,2.4535,2.4529,2.457,2.4533,2.4535,2.4531,2.453,2.4533,2.4578,2.4579,2.458,2.4581,0,2.4336,2.4333,2.4355,2.4378,2.4397,2.4415,2.4431,2.4446,2.4439,2.446,2.4491,2.4508,2.4543,2.4573,2.4599,2.4608,2.4594,2.4592,2.4603,2.4607,2.4607,2.4609,2.4482,2.459,2.4589,2.4588,2.4588,2.4587,2.4404,2.4429,2.4441,2.4468,2.4479,2.4495,2.4519,2.4522,2.4547,2.4574,2.4568,2.4603,2.4619,2.4652,2.4663,2.4692,2.4677,2.4692,2.4696,2.47,2.4705,2.4602,2.4696,2.4696,2.4696,2.4696,2.4695,0,2.4497,2.4504,2.4529,2.4551,2.4573,2.4557,2.4574,2.4594,2.4624,2.4639,2.4662,2.4698,2.4727,2.4734,2.4763,2.4784,2.4779,2.4792,2.4791,2.4794,2.4715,2.4704,2.4796,2.4796,2.4796,2.4796,2.4796,2.4796,2.4548,2.459,2.4589,2.4637,2.4644,2.4677,2.4688,2.4704,2.4716,2.4756,2.478,2.4784,2.4797,2.4826,2.4853,2.4855,2.4867,2.4883,2.4882,2.4809,2.4799,2.4789,2.4779,2.4885,2.4885,2.4958,2.4959,2.4959]}]]